カタログに戻る

CZ-6A DEB

運用中PO
NORAD 60812·DEBRIS·🇨🇳 China

打ち上げ Aug 6, 2024 から Taiyuan Satellite Launch Center

Loading…

次のパス (今後24時間)

TLE

最新Source: Space-Track

元期: Sep 14, 2026, 10:47 UTC

1 60812U 24140GP  26257.44962375  .00000707  00000-0  18352-3 0  9996
2 60812  88.9752 258.8594 0087850   3.5783 356.6030 14.46375802110334

AllMySatでCZ-6A DEBをリアルタイム追跡

Download on the App Store